x

Buoy I01 - Eastern Maine Shelf (44034) Wave Buoy

1:04pm - Fri 18th Apr 2014 All times are EDT. -4 hours from GMT.

  • Sig Wave height 3.9ft
  • Peak Period 6s
  • Wind
    4mph, 9mph gusts
  • Sea Temp 40°f
  • Air Temp 36°f
  • Sea Pressure 1033.3mb
  • Buoy I01 - Eastern Maine Shelf
  • Buoy I01 - Eastern Maine Shelf

More Historic Weather Station data

Upgrade to MSW Pro to gain access to the past 30 days of data for over 8000 Wavebouys and Weather Stations around the globe.

Join Pro

Comparision Forecast

View Surf forecast
   
Fri 04/18 1:04pm 4ft 6s 4 9 mph 1033.3mb 40f 36f
12:04pm 4.5ft 8s 7 9 mph 1034.6mb 40f 36f
11:04am 4.5ft 8s 11 13 mph 1034.9mb 40f 36f
10:04am 4.5ft 8s 16 18 mph 1034.9mb 39f 36f
9:04am 3.5ft 8s 18 20 mph 1035.4mb 39f 36f
8:04am 3.5ft 8s 18 20 mph 1036mb 39f 36f
7:04am 3ft 8s 13 16 mph 1037.5mb 39f 37f
6:04am 3ft 8s 11 13 mph 1037.4mb 39f 37f
5:04am 3.5ft 8s 7 9 mph 1037.4mb 39f 37f
4:04am 3ft 8s 9 11 mph 1037.6mb 39f 37f
3:04am 3.5ft 8s 11 13 mph 1037.2mb 39f 37f
2:04am 2.5ft 8s 7
mph
1037.5mb 39f 38f
1:04am 3ft 8s 7 9 mph 1038.3mb 39f 37f
12:04am 3.5ft 11s 9
mph
1038.9mb 39f 37f
Thu 04/17 11:04pm 3.5ft 11s 9 11 mph 1039.7mb 39f 37f
10:04pm 3.5ft 11s 11
mph
1040.5mb 39f 38f
9:04pm 4.5ft 11s 11 13 mph 1041.2mb 39f 38f
8:04pm 3.5ft 5s 13 18 mph 1040.9mb 39f 38f
7:04pm 4ft 5s 11
mph
1041.3mb 39f 38f
6:04pm 4.5ft 11s 11 13 mph 1041.3mb 40f 37f
5:04pm 4.5ft 11s 13 16 mph 1041.6mb 40f 36f
4:04pm 4ft 6s 13 16 mph 1041.5mb 40f 35f
3:04pm 4.5ft 6s 13 18 mph 1041.9mb 40f 35f
2:04pm 5.5ft 11s 16 18 mph 1042.6mb 40f 34f
1:04pm 4.5ft 5s 16 18 mph 1043.2mb 40f 33f
12:04pm 4.5ft 5s 16 20 mph 1043.6mb 40f 33f
11:04am 4.5ft 5s 16 20 mph 1044mb 40f 32f
10:04am 5.5ft 11s 22 25 mph 1043.7mb 39f 32f
9:04am 4ft 5s 20 25 mph 1043.3mb 39f 31f
8:04am  -   -  18 22 mph 1043.1mb 39f 31f
7:04am 6ft 11s 20 25 mph 1042.7mb 39f 30f
6:04am 4.5ft 4s 22 27 mph 1041.7mb 39f 30f
5:04am  -   -  22 25 mph 1040.7mb 39f 29f
4:04am 6ft 11s 22 29 mph 1039.6mb 40f 30f
3:04am 5ft 11s 25 31 mph 1039mb 40f 29f
2:04am 5.5ft 11s 22 27 mph 1038.1mb 40f 29f
1:04am  -   -  22 27 mph 1037.4mb 40f 30f
12:04am 5ft 11s 20 25 mph 1036.9mb 40f 30f
Wed 04/16 11:04pm 6ft 11s 20 25 mph 1035.6mb 40f 32f
10:04pm 6ft 11s 20 22 mph 1034.8mb 40f 33f
9:04pm 6.5ft 11s 20 25 mph 1033.7mb 40f 34f
8:04pm 6ft 11s 18 22 mph 1031.7mb 40f 35f
7:04pm 6ft 11s 18 22 mph 1030.4mb 40f 37f
6:04pm 6ft 11s 20 25 mph 1029.1mb 40f 37f
5:04pm 7ft 11s 22 29 mph 1027.6mb 40f 37f
4:04pm 6ft 11s 20 25 mph 1026.6mb 40f 36f
3:04pm 6.5ft 11s 22 25 mph 1024.9mb 40f 35f
2:04pm 6ft 11s 20 25 mph 1023.8mb 40f 35f
1:04pm 7ft 11s 22 27 mph 1022.2mb 40f 33f
12:04pm  -   -  22 27 mph 1021.1mb 40f 32f
11:04am 7.5ft 11s 22 29 mph 1020.1mb 40f 31f
10:04am 7.5ft 5s 27 34 mph 1018.6mb 39f 31f
9:04am 8.5ft 8s 31 38 mph 1016.5mb 39f 31f
8:04am 9ft 11s 27 34 mph 1014.1mb 39f 30f
7:04am 8ft 8s 22 27 mph 1011.2mb 39f 34f
6:04am 9.5ft 11s 25 31 mph 1008.6mb 39f 36f
5:04am 8.5ft 8s 20 25 mph 1007.1mb 40f 38f
4:04am 10ft 8s 16 22 mph 1005.5mb 40f 40f
3:04am 9.5ft 8s 16 20 mph 1004.1mb 40f 41f
2:04am 10ft 8s 16 18 mph 1002.6mb 40f 44f
1:04am 11ft 8s 27 31 mph 1001.8mb 40f 48f
12:04am 11ft 8s 25 29 mph 1002.1mb 40f 47f
Tue 04/15 11:04pm 11ft 8s 27 31 mph 1002.9mb 40f 47f
10:04pm 10ft 8s 29 36 mph 1003.7mb 40f 48f
9:04pm 8.5ft 8s 25 34 mph 1004.1mb 40f 47f
8:04pm 10ft 6s 31 38 mph 1004.9mb 40f 49f
7:04pm 9ft 6s 27 34 mph 1005.2mb 40f 47f
6:04pm 9ft 8s 27 34 mph 1005.4mb 40f 47f
5:04pm 9ft 6s 25 31 mph 1006mb 40f 48f
4:04pm 8.5ft 6s 22 27 mph 1007mb 40f 48f
3:04pm 8.5ft 6s 25 27 mph 1007.8mb 40f 48f
2:04pm 6.5ft 5s 22 27 mph 1008.3mb 40f 48f
1:04pm  -   -  22 25 mph 1009.2mb 40f 46f
12:04pm  -   -  20 27 mph 1010.4mb 40f 46f
11:04am  -   -  22 27 mph 1010.9mb 40f 45f
10:04am  -   -  22 27 mph 1011.2mb 40f 46f
9:04am  -   -  22 27 mph 1011.9mb 40f 46f
7:04am 7ft 6s 18 22 mph 1012.9mb 40f 45f
6:04am 8.5ft 8s 22 27 mph 1012.7mb 40f 46f
5:04am 8ft 8s 22 29 mph 1012.5mb 40f 46f
4:04am 8ft 8s 20 22 mph 1012.7mb 40f 46f
3:04am 9.5ft 8s 20 25 mph 1012.5mb 40f 46f
2:04am 8.5ft 8s 18 20 mph 1012.9mb 40f 45f
1:04am 9ft 8s 20 27 mph 1012.8mb 40f 46f
12:04am 8ft 6s 25 29 mph 1012.7mb 40f 47f
Mon 04/14 11:04pm 7.5ft 6s 20 22 mph 1012.9mb 40f 46f
10:04pm 7.5ft 6s 22 27 mph 1012.8mb 40f 46f
9:04pm 8.5ft 6s 25 31 mph 1012.7mb 40f 47f
8:04pm 8ft 6s 25 29 mph 1012.5mb 40f 46f
7:04pm 8ft 6s 25 29 mph 1012.2mb 40f 47f